[[{"header":{"parameterUnit":"m.s-1","parameterCategory":2,"la1":30.2992,"la2":30.254,"lo1":-89.0895,"lo2":-89.0443,"dy":0.0025,"dx":0.0025,"nx":19,"ny":19,"refTime":"2026-03-23T21:00:00:Z","depth":"0","parameterNumber":2,"parameterNumberName":"U-component_of_CURRENTS"},"data":[0,0,0,0.1321,0.1318,0.1165,0.1164,0.0989,0.0988,0,0,0,0,0,0,0,0,0,0,0,0.1368,0.1367,0.1321,0.1318,0.1165,0.1164,0.099,0.0988,0,0,0,0,0,0,0,0,0,0,0,0.1368,0.1367,0.1367,0.1318,0.1165,0.1164,0.099,0.1092,0,0,0,0,0,0,0,0,0,0,0.1235,0.1277,0.1367,0.1367,0.1317,0.1166,0.1164,0.1097,0.1086,0.1075,0,0.1066,0,0.1041,0.098,0.098,0,0,0,0.1286,0.1285,0.1263,0.1367,0.1316,0.1166,0.1225,0.109,0.1078,0.1061,0.1064,0.1057,0.1038,0.0979,0.0979,0.0918,0.0919,0,0,0.1294,0.1316,0.1271,0.1256,0.1296,0.123,0.1221,0.1082,0.1069,0.1063,0.1053,0.1035,0.0978,0.0978,0.0918,0.0918,0,0,0,0.134,0.1322,0.13,0.1263,0.1243,0.1227,0.1215,0.1074,0.1072,0.1051,0.1033,0.0978,0.0976,0.0918,0.0918,0.1001,0,0,0,0.1344,0.1352,0.1305,0.1313,0.1247,0.1152,0.121,0.1081,0.1065,0.1034,0.0978,0.0975,0.0918,0.0918,0.0998,0.0996,0,0,0,0.1371,0.1354,0.1347,0.1315,0.1266,0.1154,0.1141,0.1076,0.1056,0.098,0.0975,0.0917,0.0918,0.0996,0.0993,0.105,0,0,0,0.1383,0.1345,0.1347,0.1287,0.1268,0.1177,0.1141,0.1054,0.0989,0.0977,0.0918,0.0918,0.0995,0.0991,0.1048,0.1049,0.1061,0,0,0.1337,0.134,0.1301,0.13,0.1215,0.1194,0.1129,0.1037,0.1001,0.0958,0.0956,0.0999,0.0992,0.105,0.1085,0.1096,0,0,0,0.1287,0.1261,0.123,0.1188,0.1142,0.1127,0.1056,0.1054,0.1024,0.0973,0.0988,0.098,0.1015,0.101,0.1019,0.0901,0.0921,0.0921,0.0921,0.1219,0.1204,0.1147,0.1129,0.1098,0.1075,0.1072,0.1068,0.1031,0.1054,0.1042,0.1126,0.1122,0.1129,0.1008,0.1055,0.1055,0.1055,0.1055,0.1142,0.1127,0.112,0.1071,0.1094,0.1069,0.1096,0.1108,0.1147,0.1107,0.1139,0.1088,0.1144,0.1011,0.1061,0.106,0.1059,0.1058,0.1058,0.1123,0.1126,0.1102,0.1085,0.1085,0.1088,0.1132,0.1159,0.1188,0.1228,0.1223,0.1221,0.1109,0.1258,0.1258,0.1258,0.1259,0.1259,0.1259,0.1139,0.1119,0.112,0.1106,0.1103,0.112,0.1161,0.1202,0.1263,0.1281,0.1281,0.1114,0.1187,0.1184,0.1263,0.1262,0.1262,0.1262,0.1261,0.112,0.1164,0.1152,0.1154,0.1135,0.1137,0.119,0.1263,0.1329,0.1364,0.1207,0.1322,0.129,0.1281,0.128,0.1378,0.1378,0.1378,0.1378,0.1143,0.1156,0.1166,0.1162,0.1157,0.1139,0.1158,0.1199,0.122,0.1189,0.1188,0.113,0.113,0.1084,0.108,0.1071,0.1115,0.1114,0.1114,0.1129,0.1155,0.1158,0.1171,0.1145,0.1123,0.1071,0.102,0.1059,0.1089,0.1026,0.1038,0.0935,0.0945,0.0857,0.086,0.0841,0,0]},{"header":{"parameterUnit":"m.s-1","parameterCategory":2,"la1":30.2992,"la2":30.254,"lo1":-89.0895,"lo2":-89.0443,"dy":0.0025,"dx":0.0025,"nx":19,"ny":19,"refTime":"2026-03-23T21:00:00:Z","depth":"0","parameterNumber":3,"parameterNumberName":"V-component_of_CURRENTS"},"data":[0,0,0,-0.1603,-0.1607,-0.17,-0.17,-0.1557,-0.1555,0,0,0,0,0,0,0,0,0,0,0,-0.1558,-0.1559,-0.1603,-0.1607,-0.17,-0.17,-0.1557,-0.1555,0,0,0,0,0,0,0,0,0,0,0,-0.1557,-0.1559,-0.1561,-0.1608,-0.17,-0.17,-0.1557,-0.1542,0,0,0,0,0,0,0,0,0,0,-0.148,-0.1485,-0.1558,-0.1561,-0.1609,-0.17,-0.17,-0.1543,-0.1543,-0.1453,0,-0.1499,0,-0.1543,-0.1544,-0.1543,0,0,0,-0.1564,-0.1487,-0.1528,-0.1561,-0.161,-0.17,-0.1646,-0.1545,-0.1543,-0.1451,-0.1498,-0.1495,-0.1541,-0.1542,-0.1542,-0.1262,-0.126,0,0,-0.1559,-0.1543,-0.153,-0.1529,-0.167,-0.1643,-0.165,-0.1547,-0.1544,-0.1498,-0.1493,-0.1539,-0.1541,-0.154,-0.1264,-0.1262,0,0,0,-0.1573,-0.154,-0.1588,-0.1532,-0.1582,-0.1647,-0.1654,-0.1548,-0.1571,-0.1492,-0.1537,-0.154,-0.1538,-0.1266,-0.1263,-0.1207,0,0,0,-0.1568,-0.1552,-0.1586,-0.1573,-0.1587,-0.1602,-0.1657,-0.1577,-0.1569,-0.1538,-0.154,-0.1537,-0.1268,-0.1264,-0.1213,-0.115,0,0,0,-0.1547,-0.1549,-0.1576,-0.1573,-0.1638,-0.1607,-0.1622,-0.1577,-0.1596,-0.1543,-0.1536,-0.1269,-0.1265,-0.1218,-0.1159,-0.1058,0,0,0,-0.1503,-0.1492,-0.1576,-0.1576,-0.1638,-0.1584,-0.1624,-0.156,-0.1506,-0.1539,-0.1267,-0.1263,-0.1219,-0.1165,-0.1064,-0.0994,-0.0959,0,0,-0.1444,-0.1485,-0.1482,-0.1559,-0.1489,-0.1566,-0.145,-0.1411,-0.1405,-0.128,-0.1276,-0.1211,-0.116,-0.1059,-0.0751,-0.0725,0,0,0,-0.1432,-0.1414,-0.1412,-0.1415,-0.1421,-0.1362,-0.1356,-0.1335,-0.1238,-0.137,-0.114,-0.1107,-0.1048,-0.1016,-0.0993,-0.1011,-0.1244,-0.1244,-0.1245,-0.1323,-0.1329,-0.1252,-0.1236,-0.1215,-0.1186,-0.1124,-0.1076,-0.1117,-0.1052,-0.1012,-0.0822,-0.0785,-0.0768,-0.0787,-0.0974,-0.0974,-0.0973,-0.0973,-0.1169,-0.1104,-0.1109,-0.1019,-0.0998,-0.0913,-0.0879,-0.0896,-0.0782,-0.0868,-0.0815,-0.0895,-0.074,-0.0769,-0.0969,-0.0969,-0.097,-0.097,-0.0971,-0.1038,-0.0989,-0.0953,-0.0857,-0.0767,-0.0773,-0.0679,-0.0684,-0.0679,-0.0621,-0.0587,-0.0588,-0.0656,-0.0615,-0.0614,-0.0613,-0.0613,-0.0612,-0.0612,-0.0913,-0.0859,-0.0802,-0.0706,-0.0666,-0.0612,-0.0566,-0.051,-0.0455,-0.0459,-0.0459,-0.0554,-0.0712,-0.0775,-0.06,-0.0602,-0.0604,-0.0605,-0.0606,-0.0716,-0.0777,-0.0686,-0.0644,-0.0549,-0.0445,-0.042,-0.0288,-0.0223,-0.0161,-0.0272,-0.0363,-0.0362,-0.038,-0.0432,-0.0178,-0.0178,-0.0178,-0.0178,-0.0656,-0.0661,-0.0626,-0.0578,-0.0468,-0.0383,-0.0212,-0.0116,-0.0069,-0.0058,-0.0107,-0.0201,-0.0218,-0.0217,-0.0238,-0.0291,-0.0007,-0.0007,-0.0007,-0.0582,-0.0608,-0.0569,-0.0557,-0.0434,-0.0298,-0.0133,-0.0024,0.0023,-0.0006,-0.0137,-0.0145,-0.03,-0.0325,-0.0346,-0.0375,-0.0471,0,0]}],[{"header":{"parameterUnit":"m.s-1","parameterCategory":2,"la1":30.2992,"la2":30.254,"lo1":-89.0895,"lo2":-89.0443,"dy":0.0025,"dx":0.0025,"nx":19,"ny":19,"refTime":"2026-03-23T21:00:00:Z","depth":"2","parameterNumber":2,"parameterNumberName":"U-component_of_CURRENTS"},"data":[0,0,0,0.1528,0.1531,0.1569,0.1569,0.1384,0.1383,0,0,0,0,0,0,0,0,0,0,0,0.1476,0.1476,0.1528,0.1531,0.1569,0.1569,0.1385,0.1383,0,0,0,0,0,0,0,0,0,0,0,0.1475,0.1476,0.1477,0.1532,0.1569,0.1569,0.1385,0.1401,0,0,0,0,0,0,0,0,0,0,0.1388,0.1401,0.1476,0.1477,0.1532,0.1569,0.1569,0.1404,0.14,0.1318,0,0.134,0,0.1394,0.137,0.137,0,0,0,0.1477,0.1405,0.1423,0.1477,0.1534,0.157,0.1537,0.1403,0.1399,0.1312,0.1338,0.1334,0.139,0.1369,0.1368,0.1215,0.1215,0,0,0.1475,0.1464,0.1427,0.1421,0.1559,0.1536,0.1539,0.1402,0.1394,0.1338,0.1332,0.1387,0.1368,0.1366,0.1216,0.1215,0,0,0,0.1505,0.1463,0.1487,0.1426,0.1472,0.1538,0.1541,0.1399,0.1411,0.133,0.1385,0.1367,0.1364,0.1216,0.1215,0.1266,0,0,0,0.1501,0.1486,0.1487,0.1478,0.1477,0.1474,0.154,0.1418,0.1408,0.1386,0.1367,0.1363,0.1216,0.1216,0.1265,0.1286,0,0,0,0.1471,0.1483,0.1494,0.1478,0.1526,0.1479,0.1481,0.1417,0.1442,0.1369,0.1362,0.1216,0.1216,0.1264,0.1284,0.1311,0,0,0,0.1446,0.1455,0.1494,0.1481,0.1526,0.1477,0.1483,0.1404,0.1332,0.1366,0.1216,0.1216,0.1264,0.1283,0.131,0.1275,0.1277,0,0,0.144,0.1454,0.1435,0.1472,0.1427,0.1468,0.1425,0.1334,0.1303,0.1235,0.1233,0.1265,0.1284,0.1311,0.1239,0.1243,0,0,0,0.1418,0.1417,0.1394,0.139,0.1365,0.1388,0.1344,0.1335,0.129,0.1278,0.1238,0.1248,0.1264,0.1239,0.1242,0.1213,0.1213,0.1213,0.1213,0.1417,0.1389,0.1343,0.1326,0.131,0.1304,0.1309,0.1302,0.125,0.1251,0.1269,0.1295,0.1267,0.1269,0.1246,0.1246,0.1246,0.1247,0.1247,0.1364,0.1332,0.1317,0.1268,0.1289,0.127,0.131,0.1312,0.1327,0.1293,0.1306,0.1267,0.1276,0.125,0.1249,0.1249,0.1249,0.1248,0.1248,0.1339,0.1323,0.1294,0.1262,0.1264,0.1286,0.1322,0.1341,0.1362,0.1381,0.1334,0.1332,0.1345,0.1377,0.1377,0.1378,0.1378,0.1378,0.1378,0.1317,0.1293,0.13,0.1274,0.127,0.129,0.1328,0.1358,0.1381,0.1377,0.1376,0.1339,0.1335,0.1351,0.1381,0.1381,0.138,0.138,0.138,0.1269,0.1337,0.1316,0.132,0.1288,0.1254,0.1319,0.1343,0.1388,0.1397,0.1379,0.1378,0.1359,0.1355,0.137,0.1404,0.1404,0.1404,0.1404,0.1298,0.1315,0.1324,0.1312,0.1284,0.1236,0.1193,0.1156,0.1212,0.119,0.1198,0.1143,0.1148,0.1114,0.1115,0.1123,0.1092,0.1091,0.1091,0.1293,0.1306,0.1305,0.1302,0.1244,0.1179,0.1049,0.0864,0.0863,0.1071,0.1072,0.1397,0.1339,0.1337,0.1302,0.1297,0.1317,0,0]},{"header":{"parameterUnit":"m.s-1","parameterCategory":2,"la1":30.2992,"la2":30.254,"lo1":-89.0895,"lo2":-89.0443,"dy":0.0025,"dx":0.0025,"nx":19,"ny":19,"refTime":"2026-03-23T21:00:00:Z","depth":"2","parameterNumber":3,"parameterNumberName":"V-component_of_CURRENTS"},"data":[0,0,0,-0.031,-0.0307,-0.0135,-0.0134,-0.0315,-0.0318,0,0,0,0,0,0,0,0,0,0,0,-0.0366,-0.0365,-0.031,-0.0307,-0.0135,-0.0134,-0.0314,-0.0318,0,0,0,0,0,0,0,0,0,0,0,-0.0366,-0.0365,-0.0364,-0.0306,-0.0135,-0.0134,-0.0314,-0.034,0,0,0,0,0,0,0,0,0,0,-0.0455,-0.0429,-0.0365,-0.0364,-0.0305,-0.0135,-0.0134,-0.0337,-0.0339,-0.0512,0,-0.0479,0,-0.0423,-0.034,-0.0342,0,0,0,-0.0291,-0.0426,-0.0412,-0.0363,-0.0304,-0.0136,-0.0208,-0.0334,-0.0337,-0.0517,-0.048,-0.0484,-0.0427,-0.0343,-0.0344,-0.0523,-0.0522,0,0,-0.0301,-0.0316,-0.0408,-0.0413,-0.0262,-0.0214,-0.0203,-0.0331,-0.0329,-0.0481,-0.0486,-0.043,-0.0345,-0.0347,-0.0523,-0.0522,0,0,0,-0.0338,-0.0323,-0.0294,-0.0409,-0.0357,-0.0209,-0.0197,-0.0321,-0.032,-0.0488,-0.0432,-0.0347,-0.0351,-0.0524,-0.0523,-0.0527,0,0,0,-0.0343,-0.0346,-0.0299,-0.0304,-0.0351,-0.0276,-0.0184,-0.0309,-0.0321,-0.0431,-0.0347,-0.0354,-0.0524,-0.0523,-0.0529,-0.0457,0,0,0,-0.0373,-0.0348,-0.0334,-0.0306,-0.024,-0.0271,-0.0271,-0.0307,-0.0292,-0.0342,-0.0355,-0.0525,-0.0524,-0.053,-0.0461,-0.0406,0,0,0,-0.0388,-0.0382,-0.0334,-0.0332,-0.0242,-0.0264,-0.0268,-0.034,-0.0397,-0.0349,-0.0524,-0.0523,-0.053,-0.0463,-0.0409,-0.0315,-0.0294,0,0,-0.0402,-0.0383,-0.0393,-0.0348,-0.0363,-0.0286,-0.0286,-0.0386,-0.0418,-0.0512,-0.0511,-0.0528,-0.0461,-0.0406,-0.0235,-0.0216,0,0,0,-0.0415,-0.0374,-0.039,-0.0366,-0.0404,-0.0326,-0.0371,-0.039,-0.0428,-0.0437,-0.0498,-0.0453,-0.042,-0.0369,-0.0354,-0.0516,-0.0517,-0.0517,-0.0517,-0.0217,-0.0303,-0.032,-0.0365,-0.0374,-0.0401,-0.0363,-0.0369,-0.0475,-0.047,-0.0439,-0.0363,-0.0311,-0.0298,-0.0456,-0.0456,-0.0456,-0.0456,-0.0456,-0.0152,-0.021,-0.0233,-0.0301,-0.0313,-0.0315,-0.0304,-0.0344,-0.032,-0.039,-0.0361,-0.0352,-0.0281,-0.0456,-0.0456,-0.0456,-0.0456,-0.0456,-0.0456,-0.0124,-0.019,-0.0203,-0.0249,-0.0235,-0.0233,-0.0196,-0.0248,-0.0254,-0.0245,-0.0196,-0.0195,-0.0339,-0.0268,-0.0267,-0.0266,-0.0266,-0.0266,-0.0265,-0.0135,-0.0164,-0.0162,-0.0179,-0.0178,-0.0155,-0.016,-0.013,-0.0108,-0.0116,-0.0117,-0.0297,-0.0303,-0.0324,-0.0257,-0.0258,-0.0259,-0.026,-0.0261,-0.0202,-0.0153,-0.0164,-0.0157,-0.0114,-0.0048,-0.0042,0.0056,0.006,0.0123,-0.0036,-0.0044,-0.0011,-0.0023,-0.0035,0.0104,0.0104,0.0104,0.0104,-0.0183,-0.0174,-0.0129,-0.0099,-0.0054,0.0008,0.0154,0.0233,0.0243,0.0234,0.0228,0.017,0.0154,0.0191,0.0174,0.0164,0.0355,0.0355,0.0356,-0.0125,-0.0122,-0.0116,-0.0089,-0.0029,0.0092,0.0262,0.0354,0.0346,0.0361,0.0224,0.013,0.0024,0.0006,0.0043,0.0024,0.0,0,0]}],[{"header":{"parameterUnit":"m.s-1","parameterCategory":2,"la1":30.2992,"la2":30.254,"lo1":-89.0895,"lo2":-89.0443,"dy":0.0025,"dx":0.0025,"nx":19,"ny":19,"refTime":"2026-03-23T21:00:00:Z","depth":"4","parameterNumber":2,"parameterNumberName":"U-component_of_CURRENTS"},"data":[0,0,0,-0.0074,-0.0072,0.0132,0.0133,0.056,0.0563,0,0,0,0,0,0,0,0,0,0,0,-0.0118,-0.0118,-0.0074,-0.0072,0.0132,0.0133,0.0559,0.0563,0,0,0,0,0,0,0,0,0,0,0,-0.0118,-0.0118,-0.0117,-0.0071,0.0131,0.0134,0.0558,0.038,0,0,0,0,0,0,0,0,0,0,0.0169,0.0079,-0.0118,-0.0117,-0.0071,0.0131,0.0134,0.037,0.0391,0.0493,0,0.0496,0,0.0502,0.0589,0.0591,0,0,0,-0.0003,0.0061,0.0099,-0.0117,-0.007,0.013,0.0059,0.0381,0.0405,0.0521,0.0502,0.0516,0.0509,0.0592,0.0594,0.0957,0.0958,0,0,-0.0014,-0.0048,0.0081,0.0112,-0.005,0.0052,0.0065,0.0395,0.0419,0.0503,0.0525,0.0516,0.0594,0.0597,0.0956,0.0957,0,0,0,-0.0093,-0.0056,-0.0027,0.0096,0.0099,0.0056,0.0071,0.0406,0.0409,0.0529,0.0521,0.0597,0.0601,0.0955,0.0956,0.0996,0,0,0,-0.0096,-0.0108,-0.0033,-0.0046,0.009,0.0229,0.0075,0.0388,0.0423,0.0519,0.0597,0.0605,0.0953,0.0955,0.0992,0.0911,0,0,0,-0.0122,-0.011,-0.0101,-0.005,0.0002,0.0223,0.0249,0.0396,0.0416,0.0591,0.0606,0.0953,0.0955,0.0989,0.0909,0.0855,0,0,0,-0.0139,-0.0116,-0.0102,-0.0035,-0.0001,0.0183,0.0247,0.0465,0.0626,0.0599,0.0954,0.0956,0.0988,0.0908,0.0855,0.0707,0,0,0,-0.0119,-0.0114,-0.0064,-0.0048,0.01,0.0162,0.0367,0.0615,0.0689,0.0866,0.0875,0.0994,0.0909,0.0855,0.0861,0,0,0,0,-0.0059,-0.0023,0.0029,0.012,0.0236,0.0372,0.058,0.0655,0.087,0.0774,0.1034,0.0978,0.0943,0.0862,0.0968,0.0968,0.0968,0.0967,0.0967,-0.0019,0.0052,0.0152,0.0266,0.039,0.058,0.0682,0.0821,0.0946,0.1042,0.1046,0.1066,0.0994,0.1138,0.1138,0.1138,0.1138,0.1139,0.1139,0.0064,0.0131,0.0239,0.0371,0.0507,0.0698,0.0837,0.0921,0.1014,0.1102,0.107,0.0956,0.1144,0.1143,0.1142,0.1141,0.1141,0.1141,0.114,0.011,0.0136,0.0229,0.0395,0.0561,0.0741,0.0779,0.0902,0.0998,0.0999,0.0914,0.1044,0.0994,0.1033,0.1032,0.1032,0.1031,0.1031,0.1031,0.011,0.0174,0.0232,0.0401,0.0491,0.0618,0.0745,0.0752,0.0865,0.0862,0.101,0.1027,0.1031,0.0986,0.1023,0.1024,0.1025,0.1026,0.1027,0.0142,0.0127,0.0194,0.0257,0.0406,0.0456,0.0565,0.0598,0.058,0.0561,0.0772,0.0787,0.0719,0.0728,0.0669,0.0613,0.0611,0.0609,0,0.0115,0.0124,0.0144,0.0174,0.0241,0.0354,0.0322,0.037,0.0468,0.0482,0.0569,0.0808,0.0819,0.0745,0.075,0.0682,0,0,0,0.0098,0.0108,0.01,0.0137,0.0192,0.0251,0.0327,0.0332,0.0472,0.0402,0.0561,0.0574,0.0781,0.0999,0.0926,0.093,0.0851,0,0]},{"header":{"parameterUnit":"m.s-1","parameterCategory":2,"la1":30.2992,"la2":30.254,"lo1":-89.0895,"lo2":-89.0443,"dy":0.0025,"dx":0.0025,"nx":19,"ny":19,"refTime":"2026-03-23T21:00:00:Z","depth":"4","parameterNumber":3,"parameterNumberName":"V-component_of_CURRENTS"},"data":[0,0,0,0.0717,0.0719,0.0891,0.0893,0.1035,0.1036,0,0,0,0,0,0,0,0,0,0,0,0.0691,0.0692,0.0717,0.0719,0.0891,0.0893,0.1035,0.1036,0,0,0,0,0,0,0,0,0,0,0,0.0691,0.0692,0.0692,0.072,0.0891,0.0893,0.1035,0.0939,0,0,0,0,0,0,0,0,0,0,0.0788,0.0766,0.0691,0.0692,0.072,0.089,0.0893,0.0936,0.0945,0.0916,0,0.0931,0,0.0942,0.1038,0.1038,0,0,0,0.078,0.0759,0.0773,0.0692,0.0721,0.089,0.0831,0.0942,0.0952,0.0927,0.0933,0.0938,0.0944,0.1038,0.1038,0.101,0.1009,0,0,0.0771,0.0756,0.0767,0.0779,0.0747,0.0825,0.0835,0.095,0.0968,0.0933,0.0941,0.0946,0.1038,0.1039,0.101,0.1009,0,0,0,0.0702,0.0749,0.0766,0.0773,0.0786,0.0828,0.0841,0.0965,0.0961,0.0943,0.0948,0.1039,0.1039,0.1011,0.101,0.1001,0,0,0,0.07,0.0704,0.0761,0.0759,0.0783,0.0888,0.0853,0.0956,0.0967,0.0947,0.1039,0.1039,0.1011,0.101,0.1003,0.0973,0,0,0,0.0687,0.0703,0.0711,0.0757,0.0797,0.0886,0.0895,0.0961,0.0966,0.1038,0.1039,0.1012,0.101,0.1004,0.0976,0.0905,0,0,0,0.0683,0.0712,0.0712,0.0779,0.0794,0.0886,0.0895,0.101,0.1083,0.1039,0.1011,0.101,0.1005,0.0978,0.0908,0.0866,0,0,0,0.0715,0.0716,0.0764,0.0765,0.082,0.0868,0.0925,0.103,0.1034,0.098,0.0981,0.1002,0.0976,0.0906,0.0788,0,0,0,0,0.0773,0.078,0.081,0.0848,0.0908,0.0915,0.101,0.0999,0.1007,0.1052,0.0977,0.096,0.0916,0.0899,0.1003,0.1004,0.1004,0.1004,0.1004,0.0753,0.0801,0.0842,0.0882,0.093,0.0964,0.0964,0.0942,0.0997,0.0976,0.0936,0.085,0.0832,0.093,0.093,0.093,0.093,0.093,0.093,0.0745,0.0765,0.0812,0.0883,0.0895,0.0944,0.0887,0.0903,0.0827,0.0885,0.0844,0.0871,0.0928,0.0928,0.0929,0.0929,0.0929,0.0929,0.0929,0.0698,0.0707,0.0783,0.085,0.0876,0.0915,0.0827,0.0816,0.0796,0.0756,0.073,0.0812,0.0829,0.076,0.0759,0.0759,0.0758,0.0758,0.0758,0.0624,0.0671,0.072,0.0805,0.0843,0.0859,0.0812,0.0746,0.0723,0.0678,0.0762,0.0791,0.0797,0.0816,0.0751,0.0752,0.0753,0.0754,0.0754,0.0561,0.0604,0.0645,0.0697,0.0757,0.0736,0.0726,0.0636,0.0547,0.0478,0.0609,0.0618,0.0601,0.0611,0.0624,0.0499,0.0498,0.0497,0,0.0506,0.0532,0.0585,0.0615,0.0614,0.0647,0.0531,0.0498,0.0466,0.0477,0.0514,0.0666,0.0672,0.066,0.0667,0.0684,0,0,0,0.0453,0.0491,0.0517,0.0592,0.0574,0.0512,0.0509,0.0479,0.0502,0.0408,0.0476,0.0481,0.0635,0.0731,0.0725,0.0732,0.0762,0,0]}]]